Погода во Мнишеке под Брди

Чехия     49°52′01″N   14°15′36″E
В апреле 2022 года жителям России запретили посещать сайт meteo.paraplan.net по решению Генеральной прокуратуры. Аудитория сайта уменьшилась в 10 раз. Владельцы сайта не видят смысла в поддержке погодного сервера в таких условиях. Сайт будет закрыт в октябре.
темп.,
°C
ветер,
м/с
пор.,
м/с
влажн.,
%
обл.,
%
осадки,
мм/ч
давл.,
гПа
погр.,
м
4 октября, вт
вт423:00+10зсз41077100 0.1 1024547
02:00+10зсз4107945 0.2 1023526
05:00+7з2790100 0.0 1023192
08:00+9з2783100 0.0 1023218
11:00+13зсз356435 0.0 1023970
14:00+16зсз235541 0.0 10231328
17:00+15з22595 0.0 1022665
20:00+11ююз227821 0.0 102316
5 октября, ср
ср523:00+9ююз22835 0.0 102427
02:00+8ю2288100 0.0 102431
05:00+8ю2292100 0.0 102434
08:00+9ю2384100 0.0 102386
11:00+14ю2455100 0.0 1022333
14:00+19ю234187 0.0 1021582
17:00+17ю2258100 0.0 102034
20:00+12ююз2277100 0.0 102116
6 октября, чт
чт623:00+11ююз2381100 0.0 102250
02:00+11ююз2477100 0.0 102476
05:00+11юз378581 0.0 1024133
08:00+12юз398316 0.0 1026239
11:00+16з596835 0.0 1028877
14:00+18зсз47474 0.0 10291694
17:00+17зсз245198 0.0 1029143
20:00+11ссз11685 0.0 103210
7 октября, пт
пт723:00+9всв117734 0.0 103210
02:00+7юв11845 0.0 103210
05:00+7юв118957 0.0 103110
08:00+7ююв11852 0.0 103011
11:00+14ююв24560 0.0 1027543
14:00+18ююв23530 0.0 1024929
17:00+17юв23620 0.0 1022224
20:00+12ю11855 0.0 102210
8 октября, сб
сб823:00+11ююз229097 0.0 102219
02:00+11юз229284 0.0 102140
05:00+11зюз25959 0.0 1022131
08:00+10зюз29916 0.0 1023311
11:00+15з47473 0.0 1023723
14:00+17з45435 0.0 10231166
17:00+16з35535 0.0 1022588
20:00+11з22755 0.0 102414